,,PA_Meas_PMT16A,,PR_Meas_QMR101_102,,RH_Meas_QMH101,,SR_Meas_QMS101,,TA_Meas_QMH101,,GenWind,,GenWind,
time,status,PA,status,PR,status,RH,status,SR,status,TA,status,DirAvg,status,SpdAvg,
2010-08-26, 00:00:04,VALID,917.795,VALID,0,VALID,86.3962,VALID,0,VALID,18.8045,VALID,118,VALID,0.150781,
2010-08-26, 00:01:04,VALID,917.756,VALID,0,VALID,86.0379,VALID,0,VALID,18.8059,VALID,118,VALID,0,
2010-08-26, 00:02:04,VALID,917.747,VALID,0,VALID,86.2132,VALID,0,VALID,18.8045,VALID,118,VALID,0,
2010-08-26, 00:03:04,VALID,917.746,VALID,0,VALID,86.2818,VALID,0,VALID,18.8254,VALID,118,VALID,0,
2010-08-26, 00:04:04,VALID,917.763,VALID,0,VALID,86.3809,VALID,0.107441,VALID,18.824,VALID,118,VALID,0,
2010-08-26, 00:05:04,VALID,917.728,VALID,0,VALID,86.3123,VALID,0,VALID,18.8059,VALID,118,VALID,0,
2010-08-26, 00:06:04,VALID,917.764,VALID,0,VALID,86.5563,VALID,0,VALID,18.7864,VALID,118,VALID,0,
2010-08-26, 00:07:04,VALID,917.751,VALID,0,VALID,86.8307,VALID,0,VALID,18.7474,VALID,118,VALID,0.43125,
2010-08-26, 00:08:04,VALID,917.766,VALID,0,VALID,87.1814,VALID,0,VALID,18.6875,VALID,118,VALID,0.551953,
2010-08-26, 00:09:04,VALID,917.731,VALID,0,VALID,87.3948,VALID,0,VALID,18.6889,VALID,118,VALID,0.679688,
2010-08-26, 00:10:04,VALID,917.743,VALID,0,VALID,87.3796,VALID,0,VALID,18.7279,VALID,118,VALID,0.830078,
2010-08-26, 00:11:04,VALID,917.701,VALID,0,VALID,87.1738,VALID,0,VALID,18.7474,VALID,118,VALID,1.03867,
2010-08-26, 00:12:04,VALID,917.676,VALID,0,VALID,87.1966,VALID,0,VALID,18.7279,VALID,118,VALID,1.36992,
2010-08-26, 00:13:04,VALID,917.663,VALID,0,VALID,86.9832,VALID,0,VALID,18.7669,VALID,118,VALID,1.21758,
2010-08-26, 00:14:04,VALID,917.62,VALID,0,VALID,86.9451,VALID,0,VALID,18.7669,VALID,118,VALID,1.15078,
2010-08-26, 00:15:04,VALID,917.618,VALID,0,VALID,86.8536,VALID,0,VALID,18.8059,VALID,118,VALID,0.998828,
2010-08-26, 00:16:04,VALID,917.611,VALID,0,VALID,86.7621,VALID,0,VALID,18.7864,VALID,118,VALID,0.769922,
2010-08-26, 00:17:04,VALID,917.576,VALID,0,VALID,88.5155,VALID,0,VALID,18.7864,VALID,119,VALID,1.20859,
2010-08-26, 00:18:04,VALID,917.573,VALID,0,VALID,90.5357,VALID,0,VALID,18.6889,VALID,120,VALID,1.38633,
2010-08-26, 00:19:04,VALID,917.562,VALID,0,VALID,91.6563,VALID,0,VALID,18.6109,VALID,120,VALID,1.33086,
2010-08-26, 00:20:04,VALID,917.517,VALID,0,VALID,92.3119,VALID,0,VALID,18.533,VALID,120,VALID,1.34531,
2010-08-26, 00:21:04,VALID,917.549,VALID,0,VALID,92.7998,VALID,0,VALID,18.4146,VALID,120,VALID,1.30898,
2010-08-26, 00:22:04,VALID,917.538,VALID,0,VALID,93.3106,VALID,0,VALID,18.377,VALID,166,VALID,1.24023,
2010-08-26, 00:23:04,VALID,917.525,VALID,0,VALID,93.8443,VALID,0,VALID,18.338,VALID,166,VALID,0.859766,
2010-08-26, 00:24:04,VALID,917.496,VALID,0,VALID,94.2788,VALID,0,VALID,18.2796,VALID,166,VALID,0.880859,
2010-08-26, 00:25:04,VALID,917.491,VALID,0,VALID,94.5227,VALID,0,VALID,18.2601,VALID,166,VALID,0.728125,
2010-08-26, 00:26:04,VALID,917.479,VALID,0,VALID,94.7743,VALID,0,VALID,18.2406,VALID,166,VALID,0.828906,
2010-08-26, 00:27:04,VALID,917.424,VALID,0,VALID,94.9954,VALID,0,VALID,18.2211,VALID,166,VALID,0.543359,
2010-08-26, 00:28:04,VALID,917.397,VALID,0,VALID,95.0792,VALID,0,VALID,18.2016,VALID,166,VALID,0.722266,
2010-08-26, 00:29:04,VALID,917.391,VALID,0,VALID,95.1097,VALID,0,VALID,18.2016,VALID,166,VALID,0.769531,
2010-08-26, 00:30:04,VALID,917.353,VALID,0,VALID,95.0411,VALID,0,VALID,18.2016,VALID,166,VALID,0.48125,
2010-08-26, 00:31:04,VALID,917.328,VALID,0,VALID,94.9496,VALID,0,VALID,18.1821,VALID,166,VALID,0.720312,
2010-08-26, 00:32:04,VALID,917.28,VALID,0,VALID,94.6066,VALID,0,VALID,18.2406,VALID,166,VALID,0.761328,
2010-08-26, 00:33:04,VALID,917.273,VALID,0,VALID,93.707,VALID,0,VALID,18.3199,VALID,166,VALID,0.928906,
2010-08-26, 00:34:04,VALID,917.258,VALID,0,VALID,92.9523,VALID,0,VALID,18.3965,VALID,166,VALID,0.65,
2010-08-26, 00:35:04,VALID,917.239,VALID,0,VALID,92.1061,VALID,0,VALID,18.4564,VALID,166,VALID,0.728906,
2010-08-26, 00:36:04,VALID,917.234,VALID,0,VALID,91.0388,VALID,0,VALID,18.4745,VALID,166,VALID,0.999219,
2010-08-26, 00:37:04,VALID,917.215,VALID,0,VALID,90.6119,VALID,0,VALID,18.5135,VALID,166,VALID,0.724609,
2010-08-26, 00:38:04,VALID,917.207,VALID,0,VALID,89.7047,VALID,0,VALID,18.533,VALID,166,VALID,0.880078,
2010-08-26, 00:39:04,VALID,917.191,VALID,0,VALID,88.6756,VALID,0,VALID,18.5525,VALID,166,VALID,0.88125,
2010-08-26, 00:40:04,VALID,917.171,VALID,0,VALID,88.6298,VALID,0,VALID,18.572,VALID,166,VALID,0.59375,
2010-08-26, 00:41:04,VALID,917.131,VALID,0,VALID,88.2334,VALID,0,VALID,18.5914,VALID,166,VALID,0.89375,
2010-08-26, 00:42:04,VALID,917.13,VALID,0,VALID,88.546,VALID,0,VALID,18.6109,VALID,165,VALID,1.14648,
2010-08-26, 00:43:04,VALID,917.093,VALID,0,VALID,88.9958,VALID,0,VALID,18.6109,VALID,165,VALID,0.976563,
2010-08-26, 00:44:04,VALID,917.09,VALID,0,VALID,89.7962,VALID,0,VALID,18.5929,VALID,165,VALID,1.25781,
2010-08-26, 00:45:04,VALID,917.064,VALID,0,VALID,91.1303,VALID,0,VALID,18.5344,VALID,165,VALID,1.21484,
2010-08-26, 00:46:04,VALID,917.054,VALID,0,VALID,92.2814,VALID,0,VALID,18.455,VALID,164,VALID,1.15703,
2010-08-26, 00:47:04,VALID,917.037,VALID,0,VALID,92.7998,VALID,0,VALID,18.3965,VALID,164,VALID,0.566406,
2010-08-26, 00:48:04,VALID,917.015,VALID,0,VALID,92.7998,VALID,0,VALID,18.3575,VALID,164,VALID,0.676562,
2010-08-26, 00:49:04,VALID,917.002,VALID,0,VALID,91.5725,VALID,0,VALID,18.2796,VALID,164,VALID,0.545313,
2010-08-26, 00:50:04,VALID,916.97,VALID,0,VALID,92.0604,VALID,0,VALID,18.2016,VALID,164,VALID,0.757031,
2010-08-26, 00:51:04,VALID,916.952,VALID,0,VALID,92.1976,VALID,0,VALID,18.1445,VALID,164,VALID,0.591406,
2010-08-26, 00:52:04,VALID,916.936,VALID,0,VALID,92.1214,VALID,0,VALID,18.1041,VALID,164,VALID,0.496484,
2010-08-26, 00:53:04,VALID,916.94,VALID,0,VALID,91.4886,VALID,0,VALID,18.1431,VALID,164,VALID,0.749609,
2010-08-26, 00:54:04,VALID,916.907,VALID,0,VALID,90.6882,VALID,0,VALID,18.2211,VALID,164,VALID,0.738281,
2010-08-26, 00:55:04,VALID,916.882,VALID,0,VALID,89.598,VALID,0,VALID,18.338,VALID,164,VALID,0.671875,
2010-08-26, 00:56:04,VALID,916.865,VALID,0,VALID,89.3388,VALID,0,VALID,18.416,VALID,164,VALID,0.532422,
2010-08-26, 00:57:04,VALID,916.884,VALID,0,VALID,89.0644,VALID,0,VALID,18.4564,VALID,164,VALID,0.779297,
2010-08-26, 00:58:04,VALID,916.859,VALID,0,VALID,89.0263,VALID,0,VALID,18.4759,VALID,164,VALID,0.844141,
2010-08-26, 00:59:04,VALID,916.876,VALID,0,VALID,88.7061,VALID,0,VALID,18.455,VALID,164,VALID,1.1293,
2010-08-26, 01:00:04,VALID,916.864,VALID,0,VALID,88.7899,VALID,0,VALID,18.4745,VALID,164,VALID,0.923437,
2010-08-26, 01:01:04,VALID,916.852,VALID,0,VALID,88.9195,VALID,0,VALID,18.455,VALID,164,VALID,1.07578,
2010-08-26, 01:02:04,VALID,916.873,VALID,0,VALID,88.668,VALID,0,VALID,18.4745,VALID,164,VALID,1.11328,
2010-08-26, 01:03:04,VALID,916.873,VALID,0,VALID,88.6298,VALID,0,VALID,18.494,VALID,164,VALID,1.05469,
2010-08-26, 01:04:04,VALID,916.865,VALID,0,VALID,88.8052,VALID,0,VALID,18.494,VALID,164,VALID,1.11484,
2010-08-26, 01:05:04,VALID,916.862,VALID,0,VALID,88.5841,VALID,0,VALID,18.533,VALID,164,VALID,0.75,
2010-08-26, 01:06:04,VALID,916.873,VALID,0,VALID,88.0733,VALID,0,VALID,18.572,VALID,164,VALID,0.941406,
2010-08-26, 01:07:04,VALID,916.836,VALID,0,VALID,87.9666,VALID,0,VALID,18.572,VALID,164,VALID,0.842969,
2010-08-26, 01:08:04,VALID,916.852,VALID,0,VALID,87.5702,VALID,0,VALID,18.5525,VALID,164,VALID,0.901563,
2010-08-26, 01:09:04,VALID,916.849,VALID,0,VALID,87.1204,VALID,0,VALID,18.533,VALID,164,VALID,0.727734,
2010-08-26, 01:10:04,VALID,916.862,VALID,0,VALID,87.3034,VALID,0,VALID,18.572,VALID,164,VALID,0.659766,
2010-08-26, 01:11:04,VALID,916.858,VALID,0,VALID,87.8599,VALID,0,VALID,18.572,VALID,164,VALID,0.342578,
2010-08-26, 01:12:04,VALID,916.789,VALID,0,VALID,88.3478,VALID,0,VALID,18.4926,VALID,164,VALID,0.257031,
2010-08-26, 01:13:04,VALID,916.815,VALID,0,VALID,87.7913,VALID,0,VALID,18.455,VALID,164,VALID,0.462891,
2010-08-26, 01:14:04,VALID,916.792,VALID,0,VALID,87.959,VALID,0,VALID,18.416,VALID,164,VALID,0.667578,
2010-08-26, 01:15:04,VALID,916.743,VALID,0,VALID,88.1267,VALID,0,VALID,18.416,VALID,164,VALID,0.955859,
2010-08-26, 01:16:04,VALID,916.742,VALID,0,VALID,89.7733,VALID,0,VALID,18.455,VALID,164,VALID,1.01758,
2010-08-26, 01:17:04,VALID,916.754,VALID,0,VALID,90.4137,VALID,0,VALID,18.416,VALID,164,VALID,0.766797,
2010-08-26, 01:18:04,VALID,916.744,VALID,0,VALID,91.1379,VALID,0,VALID,18.3965,VALID,164,VALID,0.821484,
2010-08-26, 01:19:04,VALID,916.755,VALID,0,VALID,91.7021,VALID,0,VALID,18.3575,VALID,161,VALID,0.892187,
2010-08-26, 01:20:04,VALID,916.768,VALID,0,VALID,91.7173,VALID,0,VALID,18.3185,VALID,134,VALID,1.50234,
2010-08-26, 01:21:04,VALID,916.757,VALID,0,VALID,91.3743,VALID,0,VALID,18.2977,VALID,127,VALID,1.62656,
2010-08-26, 01:22:04,VALID,916.755,VALID,0,VALID,90.9473,VALID,0,VALID,18.3185,VALID,123,VALID,1.47695,
2010-08-26, 01:23:04,VALID,916.723,VALID,0,VALID,90.0402,VALID,0,VALID,18.3185,VALID,125,VALID,1.84531,
2010-08-26, 01:24:04,VALID,916.725,VALID,0,VALID,89.2931,VALID,0,VALID,18.3965,VALID,128,VALID,1.59844,
2010-08-26, 01:25:04,VALID,916.681,VALID,0,VALID,88.7366,VALID,0,VALID,18.4536,VALID,117,VALID,1.47344,
2010-08-26, 01:26:04,VALID,916.673,VALID,0,VALID,88.7213,VALID,0,VALID,18.4731,VALID,110,VALID,0.942578,
2010-08-26, 01:27:04,VALID,916.648,VALID,0,VALID,88.4011,VALID,0,VALID,18.494,VALID,110,VALID,1.03437,
2010-08-26, 01:28:04,VALID,916.649,VALID,0,VALID,88.2868,VALID,0,VALID,18.533,VALID,110,VALID,0.832031,
2010-08-26, 01:29:04,VALID,916.663,VALID,0,VALID,88.02,VALID,0,VALID,18.5525,VALID,110,VALID,0.992578,
2010-08-26, 01:30:04,VALID,916.64,VALID,0,VALID,88.0505,VALID,0,VALID,18.5525,VALID,110,VALID,0.897266,
2010-08-26, 01:31:04,VALID,916.628,VALID,0,VALID,87.9209,VALID,0,VALID,18.572,VALID,110,VALID,1.02734,
2010-08-26, 01:32:04,VALID,916.671,VALID,0,VALID,87.3415,VALID,0,VALID,18.6109,VALID,110,VALID,0.898047,
2010-08-26, 01:33:04,VALID,916.656,VALID,0,VALID,87.0823,VALID,0,VALID,18.6499,VALID,110,VALID,1.14492,
2010-08-26, 01:34:04,VALID,916.653,VALID,0,VALID,87.1509,VALID,0,VALID,18.6694,VALID,110,VALID,1.13047,
2010-08-26, 01:35:04,VALID,916.671,VALID,0,VALID,86.7926,VALID,0,VALID,18.6889,VALID,110,VALID,0.995703,
2010-08-26, 01:36:04,VALID,916.681,VALID,0,VALID,86.7316,VALID,0,VALID,18.6889,VALID,110,VALID,1.19883,
2010-08-26, 01:37:04,VALID,916.683,VALID,0,VALID,85.9921,VALID,0,VALID,18.7084,VALID,117,VALID,1.70508,
2010-08-26, 01:38:04,VALID,916.68,VALID,0,VALID,85.489,VALID,0,VALID,18.7669,VALID,127,VALID,1.61016,
2010-08-26, 01:39:04,VALID,916.7,VALID,0,VALID,85.5881,VALID,0,VALID,18.8254,VALID,127,VALID,1.4457,
2010-08-26, 01:40:04,VALID,916.713,VALID,0,VALID,85.7024,VALID,0,VALID,18.824,VALID,126,VALID,1.5293,
2010-08-26, 01:41:04,VALID,916.716,VALID,0,VALID,85.367,VALID,0,VALID,18.8254,VALID,118,VALID,1.81328,
2010-08-26, 01:42:04,VALID,916.699,VALID,0,VALID,85.8168,VALID,0,VALID,18.8644,VALID,121,VALID,1.19961,
2010-08-26, 01:43:04,VALID,916.712,VALID,0,VALID,85.672,VALID,0,VALID,18.8254,VALID,121,VALID,1.38594,
2010-08-26, 01:44:04,VALID,916.736,VALID,0,VALID,85.9845,VALID,0,VALID,18.8254,VALID,121,VALID,1.48672,
2010-08-26, 01:45:04,VALID,916.733,VALID,0,VALID,85.6186,VALID,0,VALID,18.8059,VALID,121,VALID,1.42461,
2010-08-26, 01:46:04,VALID,916.75,VALID,0,VALID,85.8473,VALID,0,VALID,18.7864,VALID,121,VALID,0.8625,
2010-08-26, 01:47:04,VALID,916.736,VALID,0,VALID,85.2374,VALID,0,VALID,18.8254,VALID,135,VALID,1.12227,
2010-08-26, 01:48:04,VALID,916.77,VALID,0,VALID,85.6186,VALID,0,VALID,18.8644,VALID,126,VALID,1.28477,
2010-08-26, 01:49:04,VALID,916.77,VALID,0,VALID,85.1917,VALID,0,VALID,18.8629,VALID,140,VALID,1.28906,
2010-08-26, 01:50:04,VALID,916.762,VALID,0,VALID,85.5957,VALID,0,VALID,18.8839,VALID,140,VALID,1.41016,
2010-08-26, 01:51:04,VALID,916.773,VALID,0,VALID,85.9311,VALID,0,VALID,18.8629,VALID,116,VALID,1.33438,
2010-08-26, 01:52:04,VALID,916.794,VALID,0,VALID,86.5105,VALID,0,VALID,18.8644,VALID,142,VALID,1.29062,
2010-08-26, 01:53:04,VALID,916.779,VALID,0,VALID,86.419,VALID,0,VALID,18.8254,VALID,112,VALID,1.05078,
2010-08-26, 01:54:04,VALID,916.809,VALID,0,VALID,85.9311,VALID,0,VALID,18.785,VALID,134,VALID,1.3207,
2010-08-26, 01:55:04,VALID,916.855,VALID,0,VALID,85.9311,VALID,0,VALID,18.8059,VALID,120,VALID,1.33008,
2010-08-26, 01:56:04,VALID,916.852,VALID,0,VALID,86.0074,VALID,0,VALID,18.7864,VALID,135,VALID,1.36133,
2010-08-26, 01:57:04,VALID,916.872,VALID,0,VALID,86.3504,VALID,0,VALID,18.8059,VALID,113,VALID,1.09805,
2010-08-26, 01:58:04,VALID,916.875,VALID,0,VALID,85.367,VALID,0,VALID,18.8254,VALID,134,VALID,1.50312,
2010-08-26, 01:59:04,VALID,916.884,VALID,0,VALID,84.9249,VALID,0,VALID,18.9034,VALID,112,VALID,0.682031,
2010-08-26, 02:00:04,VALID,916.874,VALID,0,VALID,83.789,VALID,0,VALID,18.9619,VALID,133,VALID,1.22266,
2010-08-26, 02:01:04,VALID,916.831,VALID,0,VALID,83.423,VALID,0,VALID,19.0203,VALID,133,VALID,1.00742,
2010-08-26, 02:02:04,VALID,916.836,VALID,0,VALID,82.2185,VALID,0,VALID,19.0593,VALID,124,VALID,1.67617,
2010-08-26, 02:03:04,VALID,916.839,VALID,0,VALID,82.8513,VALID,0,VALID,19.1178,VALID,134,VALID,1.10508,
2010-08-26, 02:04:04,VALID,916.785,VALID,0,VALID,82.8513,VALID,0,VALID,19.1568,VALID,120,VALID,0.775391,
2010-08-26, 02:05:04,VALID,916.754,VALID,0,VALID,81.7535,VALID,0,VALID,19.1958,VALID,120,VALID,0.685156,
2010-08-26, 02:06:04,VALID,916.76,VALID,0,VALID,81.2732,VALID,0,VALID,19.2348,VALID,120,VALID,1.42031,
2010-08-26, 02:07:04,VALID,916.725,VALID,0,VALID,81.5477,VALID,0,VALID,19.3128,VALID,120,VALID,0.976953,
2010-08-26, 02:08:04,VALID,916.727,VALID,0,VALID,80.9836,VALID,0,VALID,19.3323,VALID,120,VALID,1.22578,
2010-08-26, 02:09:04,VALID,916.732,VALID,0,VALID,81.5858,VALID,0,VALID,19.3323,VALID,120,VALID,1.18945,
2010-08-26, 02:10:04,VALID,916.715,VALID,0,VALID,81.9975,VALID,0,VALID,19.3308,VALID,120,VALID,1.19492,
2010-08-26, 02:11:04,VALID,916.719,VALID,0,VALID,82.4854,VALID,0,VALID,19.2918,VALID,120,VALID,1.26328,
2010-08-26, 02:12:04,VALID,916.779,VALID,0,VALID,82.5692,VALID,0.107441,VALID,19.2738,VALID,120,VALID,1.43047,
2010-08-26, 02:13:04,VALID,916.755,VALID,0,VALID,83.2858,VALID,0,VALID,19.2334,VALID,120,VALID,1.07656,
2010-08-26, 02:14:04,VALID,916.776,VALID,0,VALID,83.7051,VALID,0,VALID,19.1763,VALID,120,VALID,1.07187,
2010-08-26, 02:15:04,VALID,916.739,VALID,0,VALID,84.0329,VALID,0,VALID,19.1178,VALID,120,VALID,1.17109,
2010-08-26, 02:16:04,VALID,916.764,VALID,0,VALID,84.8639,VALID,0,VALID,19.0593,VALID,120,VALID,1.14258,
2010-08-26, 02:17:04,VALID,916.738,VALID,0,VALID,85.3746,VALID,0,VALID,19.0008,VALID,118,VALID,1.53633,
2010-08-26, 02:18:04,VALID,916.743,VALID,0,VALID,85.5652,VALID,0,VALID,18.9034,VALID,101,VALID,1.55352,
2010-08-26, 02:19:04,VALID,916.757,VALID,0,VALID,86.1598,VALID,0,VALID,18.8644,VALID,118,VALID,1.55664,
2010-08-26, 02:20:04,VALID,916.714,VALID,0,VALID,85.893,VALID,0,VALID,18.785,VALID,118,VALID,1.59141,
2010-08-26, 02:21:04,VALID,916.742,VALID,0,VALID,86.2132,VALID,0.107441,VALID,18.7864,VALID,118,VALID,1.47227,
2010-08-26, 02:22:04,VALID,916.724,VALID,0,VALID,86.6401,VALID,0,VALID,18.7669,VALID,118,VALID,1.39375,
2010-08-26, 02:23:04,VALID,916.705,VALID,0,VALID,86.785,VALID,0,VALID,18.7474,VALID,124,VALID,1.95078,
2010-08-26, 02:24:04,VALID,916.726,VALID,0,VALID,87.2881,VALID,0,VALID,18.7279,VALID,127,VALID,1.28828,
2010-08-26, 02:25:04,VALID,916.693,VALID,0,VALID,87.4101,VALID,0,VALID,18.7279,VALID,127,VALID,1.49844,
2010-08-26, 02:26:04,VALID,916.7,VALID,0,VALID,87.4406,VALID,0,VALID,18.7279,VALID,127,VALID,1.56367,
2010-08-26, 02:27:04,VALID,916.653,VALID,0,VALID,87.3796,VALID,0,VALID,18.7084,VALID,127,VALID,1.35938,
2010-08-26, 02:28:04,VALID,916.648,VALID,0,VALID,87.9132,VALID,0,VALID,18.6875,VALID,127,VALID,0.984375,
2010-08-26, 02:29:04,VALID,916.637,VALID,0,VALID,88.3097,VALID,0,VALID,18.6875,VALID,127,VALID,1.05977,
2010-08-26, 02:30:04,VALID,916.602,VALID,0,VALID,88.424,VALID,0.107441,VALID,18.6889,VALID,127,VALID,0.903906,
2010-08-26, 02:31:04,VALID,916.569,VALID,0,VALID,88.546,VALID,0,VALID,18.6499,VALID,127,VALID,0.934766,
2010-08-26, 02:32:04,VALID,916.54,VALID,0,VALID,88.7671,VALID,0,VALID,18.6499,VALID,127,VALID,0.912109,
2010-08-26, 02:33:04,VALID,916.476,VALID,0,VALID,88.2868,VALID,0,VALID,18.6109,VALID,127,VALID,1.16641,
2010-08-26, 02:34:04,VALID,916.453,VALID,0,VALID,87.3415,VALID,0,VALID,18.6304,VALID,127,VALID,1.17617,
2010-08-26, 02:35:04,VALID,916.438,VALID,0,VALID,86.6935,VALID,0,VALID,18.668,VALID,127,VALID,1.14688,
2010-08-26, 02:36:04,VALID,916.414,VALID,0,VALID,86.015,VALID,0,VALID,18.7655,VALID,127,VALID,1.31562,
2010-08-26, 02:37:04,VALID,916.408,VALID,0,VALID,85.2374,VALID,0,VALID,18.8629,VALID,127,VALID,1.53906,
2010-08-26, 02:38:04,VALID,916.39,VALID,0,VALID,84.8486,VALID,0,VALID,18.9814,VALID,127,VALID,1.38672,
2010-08-26, 02:39:04,VALID,916.37,VALID,0,VALID,84.1473,VALID,0.107441,VALID,19.0593,VALID,127,VALID,1.45234,
2010-08-26, 02:40:04,VALID,916.398,VALID,0,VALID,83.3163,VALID,0,VALID,19.1763,VALID,127,VALID,1.67305,
2010-08-26, 02:41:04,VALID,916.414,VALID,0,VALID,83.1257,VALID,0,VALID,19.2723,VALID,127,VALID,1.36641,
2010-08-26, 02:42:04,VALID,916.431,VALID,0,VALID,83.3163,VALID,0,VALID,19.3323,VALID,127,VALID,1.05313,
2010-08-26, 02:43:04,VALID,916.469,VALID,0,VALID,83.1867,VALID,0,VALID,19.2918,VALID,127,VALID,1.33867,
2010-08-26, 02:44:04,VALID,916.491,VALID,0,VALID,83.3544,VALID,0,VALID,19.2933,VALID,141,VALID,1.41406,
2010-08-26, 02:45:04,VALID,916.49,VALID,0,VALID,83.5679,VALID,0.107441,VALID,19.2723,VALID,141,VALID,1.20977,
2010-08-26, 02:46:04,VALID,916.479,VALID,0,VALID,82.9275,VALID,0,VALID,19.3128,VALID,141,VALID,1.51016,
2010-08-26, 02:47:04,VALID,916.482,VALID,0,VALID,82.9504,VALID,0,VALID,19.3518,VALID,140,VALID,1.72852,
2010-08-26, 02:48:04,VALID,916.466,VALID,0,VALID,82.554,VALID,0,VALID,19.3713,VALID,140,VALID,1.57109,
2010-08-26, 02:49:04,VALID,916.481,VALID,0,VALID,82.9428,VALID,0,VALID,19.3908,VALID,140,VALID,1.48164,
2010-08-26, 02:50:04,VALID,916.454,VALID,0,VALID,82.9885,VALID,0.107441,VALID,19.3713,VALID,140,VALID,1.42617,
2010-08-26, 02:51:04,VALID,916.481,VALID,0,VALID,83.3316,VALID,0,VALID,19.3128,VALID,140,VALID,1.08203,
2010-08-26, 02:52:04,VALID,916.469,VALID,0,VALID,84.0558,VALID,0,VALID,19.2528,VALID,140,VALID,0.9875,
2010-08-26, 02:53:04,VALID,916.512,VALID,0,VALID,84.3988,VALID,0,VALID,19.2139,VALID,140,VALID,1.35664,
2010-08-26, 02:54:04,VALID,916.497,VALID,0,VALID,83.9948,VALID,0.107441,VALID,19.2153,VALID,141,VALID,1.39883,
2010-08-26, 02:55:04,VALID,916.5,VALID,0,VALID,84.3302,VALID,0.107441,VALID,19.1944,VALID,141,VALID,1.05859,
2010-08-26, 02:56:04,VALID,916.5,VALID,0,VALID,84.597,VALID,0,VALID,19.2153,VALID,130,VALID,1.48867,
2010-08-26, 02:57:04,VALID,916.52,VALID,0,VALID,83.9262,VALID,0,VALID,19.2153,VALID,136,VALID,1.37695,
2010-08-26, 02:58:04,VALID,916.525,VALID,0,VALID,84.0253,VALID,0,VALID,19.2738,VALID,121,VALID,1.06641,
2010-08-26, 02:59:04,VALID,916.541,VALID,0,VALID,83.8881,VALID,0,VALID,19.3128,VALID,121,VALID,1.31016,
2010-08-26, 03:00:04,VALID,916.478,VALID,0,VALID,83.8271,VALID,0,VALID,19.3518,VALID,142,VALID,0.996094,
2010-08-26, 03:01:04,VALID,916.482,VALID,0,VALID,83.0419,VALID,0,VALID,19.3503,VALID,126,VALID,1.51797,
2010-08-26, 03:02:04,VALID,916.452,VALID,0,VALID,83.2172,VALID,0.107441,VALID,19.3893,VALID,125,VALID,1.03594,
2010-08-26, 03:03:04,VALID,916.424,VALID,0,VALID,83.1943,VALID,0,VALID,19.4283,VALID,125,VALID,1.61094,
2010-08-26, 03:04:04,VALID,916.443,VALID,0,VALID,83.3316,VALID,0.107441,VALID,19.4283,VALID,134,VALID,1.24648,
2010-08-26, 03:05:04,VALID,916.403,VALID,0,VALID,83.2782,VALID,0,VALID,19.4478,VALID,125,VALID,1.08906,
2010-08-26, 03:06:04,VALID,916.396,VALID,0,VALID,83.6441,VALID,0.107441,VALID,19.4103,VALID,125,VALID,1.0875,
2010-08-26, 03:07:04,VALID,916.4,VALID,0,VALID,83.9109,VALID,0,VALID,19.3518,VALID,125,VALID,1.01367,
2010-08-26, 03:08:04,VALID,916.381,VALID,0,VALID,84.7114,VALID,0,VALID,19.3128,VALID,125,VALID,0.932813,
2010-08-26, 03:09:04,VALID,916.402,VALID,0,VALID,84.8181,VALID,0,VALID,19.2139,VALID,125,VALID,1.0168,
2010-08-26, 03:10:04,VALID,916.418,VALID,0,VALID,83.9414,VALID,0,VALID,19.2334,VALID,125,VALID,1.6,
2010-08-26, 03:11:04,VALID,916.407,VALID,0,VALID,85.1078,VALID,0,VALID,19.2918,VALID,125,VALID,0.848437,
2010-08-26, 03:12:04,VALID,916.407,VALID,0,VALID,83.606,VALID,0,VALID,19.2723,VALID,125,VALID,1.56289,
2010-08-26, 03:13:04,VALID,916.417,VALID,0,VALID,83.3239,VALID,0,VALID,19.3518,VALID,125,VALID,1.3375,
2010-08-26, 03:14:04,VALID,916.435,VALID,0,VALID,82.8742,VALID,0,VALID,19.3893,VALID,125,VALID,1.50781,
2010-08-26, 03:15:04,VALID,916.482,VALID,0,VALID,82.1423,VALID,0,VALID,19.4673,VALID,125,VALID,1.93594,
2010-08-26, 03:16:04,VALID,916.474,VALID,0,VALID,81.7764,VALID,0,VALID,19.5843,VALID,125,VALID,1.6625,
2010-08-26, 03:17:04,VALID,916.477,VALID,0,VALID,81.8907,VALID,0,VALID,19.6428,VALID,125,VALID,1.41289,
2010-08-26, 03:18:04,VALID,916.467,VALID,0,VALID,81.2275,VALID,0,VALID,19.6833,VALID,125,VALID,1.21172,
2010-08-26, 03:19:04,VALID,916.471,VALID,0,VALID,81.7001,VALID,0,VALID,19.6818,VALID,125,VALID,1.29297,
2010-08-26, 03:20:04,VALID,916.448,VALID,0,VALID,81.6163,VALID,0,VALID,19.6623,VALID,125,VALID,1.14336,
2010-08-26, 03:21:04,VALID,916.473,VALID,0,VALID,81.967,VALID,0,VALID,19.6233,VALID,125,VALID,1.08555,
2010-08-26, 03:22:04,VALID,916.418,VALID,0,VALID,81.5858,VALID,0.107441,VALID,19.6038,VALID,125,VALID,0.771875,
2010-08-26, 03:23:04,VALID,916.427,VALID,0,VALID,81.3647,VALID,0,VALID,19.6443,VALID,129,VALID,1.19727,
2010-08-26, 03:24:04,VALID,916.448,VALID,0,VALID,81.197,VALID,0.107441,VALID,19.6428,VALID,149,VALID,1.18125,
2010-08-26, 03:25:04,VALID,916.444,VALID,0,VALID,81.1741,VALID,0.107441,VALID,19.6833,VALID,149,VALID,1.14922,
2010-08-26, 03:26:04,VALID,916.438,VALID,0,VALID,81.4791,VALID,0.107441,VALID,19.6623,VALID,149,VALID,0.893359,
2010-08-26, 03:27:04,VALID,916.472,VALID,0,VALID,81.906,VALID,0,VALID,19.6233,VALID,149,VALID,1.01289,
2010-08-26, 03:28:04,VALID,916.478,VALID,0,VALID,81.5019,VALID,0,VALID,19.6248,VALID,151,VALID,1.30742,
2010-08-26, 03:29:05,VALID,916.507,VALID,0,VALID,82.5768,VALID,0,VALID,19.5648,VALID,138,VALID,1.17266,
2010-08-26, 03:30:05,VALID,916.482,VALID,0,VALID,82.3939,VALID,0.107441,VALID,19.4853,VALID,142,VALID,1.53555,
2010-08-26, 03:31:05,VALID,916.496,VALID,0,VALID,81.9288,VALID,0,VALID,19.5258,VALID,136,VALID,1.43203,
2010-08-26, 03:32:05,VALID,916.541,VALID,0,VALID,81.5553,VALID,0,VALID,19.5843,VALID,124,VALID,1.36133,
2010-08-26, 03:33:05,VALID,916.516,VALID,0,VALID,81.7001,VALID,0,VALID,19.6233,VALID,140,VALID,1.11211,
2010-08-26, 03:34:05,VALID,916.521,VALID,0,VALID,81.3723,VALID,0,VALID,19.6623,VALID,148,VALID,1.71367,
2010-08-26, 03:35:05,VALID,916.522,VALID,0,VALID,80.7472,VALID,0,VALID,19.7013,VALID,145,VALID,1.05156,
2010-08-26, 03:36:05,VALID,916.509,VALID,0,VALID,80.3889,VALID,0,VALID,19.7403,VALID,149,VALID,1.45234,
2010-08-26, 03:37:05,VALID,916.483,VALID,0,VALID,80.6329,VALID,0,VALID,19.7793,VALID,138,VALID,1.45703,
2010-08-26, 03:38:05,VALID,916.481,VALID,0,VALID,80.0992,VALID,0,VALID,19.8003,VALID,146,VALID,1.36641,
2010-08-26, 03:39:05,VALID,916.483,VALID,0,VALID,80.7548,VALID,0,VALID,19.8198,VALID,133,VALID,1.06016,
2010-08-26, 03:40:05,VALID,916.492,VALID,0,VALID,80.5185,VALID,0,VALID,19.7988,VALID,133,VALID,1.34336,
2010-08-26, 03:41:05,VALID,916.492,VALID,0,VALID,80.0154,VALID,0,VALID,19.8393,VALID,142,VALID,1.48008,
2010-08-26, 03:42:05,VALID,916.473,VALID,0,VALID,79.5808,VALID,0,VALID,19.8588,VALID,135,VALID,1.84531,
2010-08-26, 03:43:05,VALID,916.503,VALID,0,VALID,80.145,VALID,0,VALID,19.8783,VALID,141,VALID,1.46016,
2010-08-26, 03:44:05,VALID,916.482,VALID,0,VALID,79.6342,VALID,0,VALID,19.8963,VALID,127,VALID,1.66875,
2010-08-26, 03:45:05,VALID,916.461,VALID,0,VALID,79.4589,VALID,0,VALID,19.9563,VALID,129,VALID,1.52383,